EW5962 Weather Reports


time (UTC)temp
C
wind
direction
speed
KPH
gust
KPH
rain 1hr
cm
rain 24hr
cm
rain mn
cm
humidity
%
barometer
mb
20260508164011 19 162 1.6 4.8 0.00 0.53 0.00 47 1016.4
20260508163602 19 340 1.6 8.0 0.00 0.53 0.00 46 1016.5
20260508163003 19 340 4.8 8.0 0.00 0.53 0.00 52 1016.6
20260508162509 18 324 1.6 6.4 0.00 0.53 0.00 46 1016.7
20260508162103 18 332 1.6 6.4 0.00 0.53 0.00 45 1016.8
20260508161504 18 255 0.0 11.3 0.00 0.53 0.00 42 1016.8
20260508161011 18 323 3.2 11.3 0.00 0.53 0.00 47 1016.9
20260508160604 18 337 3.2 6.4 0.00 0.53 0.00 52 1016.9
20260508160003 18 308 0.0 8.0 0.00 0.53 0.00 54 1016.9
20260508155511 18 347 3.2 8.0 0.00 0.56 0.00 55 1017.1
20260508155105 18 30 3.2 8.0 0.00 0.56 0.00 48 1017.0
20260508154503 17 290 0.0 8.0 0.00 0.56 0.00 60 1017.2
20260508154009 17 34 3.2 9.7 0.00 0.56 0.00 52 1017.1
20260508153603 17 347 3.2 9.7 0.00 0.56 0.00 57 1017.2
20260508153004 17 334 3.2 6.4 0.00 0.56 0.00 65 1017.2
20260508152510 17 248 1.6 6.4 0.00 0.56 0.00 59 1017.3
20260508152105 16 326 0.0 6.4 0.00 0.56 0.00 53 1017.4
20260508151503 16 320 1.6 6.4 0.00 0.56 0.00 58 1017.4
20260508151010 16 346 1.6 4.8 0.00 0.56 0.00 63 1017.5
20260508150603 15 230 0.0 6.4 0.00 0.56 0.00 65 1017.5
20260508150007 15 8 1.6 8.0 0.00 0.56 0.00 63 1017.5
20260508145509 15 347 1.6 8.0 0.00 0.64 0.00 67 1017.6
20260508145105 15 250 0.0 8.0 0.00 0.64 0.00 70 1017.5
20260508144504 14 348 1.6 3.2 0.00 0.64 0.00 78 1017.5
20260508144009 13 25 0.0 8.0 0.00 0.64 0.00 72 1017.4
20260508143604 13 29 0.0 8.0 0.00 0.64 0.00 77 1017.4
20260508143007 13 299 1.6 4.8 0.00 0.64 0.00 78 1017.4
20260508142509 12 348 1.6 4.8 0.00 0.64 0.00 79 1017.3
20260508142103 12 347 0.0 4.8 0.00 0.64 0.00 87 1017.3
20260508141503 12 349 1.6 4.8 0.00 0.64 0.00 92 1017.3
20260508141011 11 311 0.0 3.2 0.00 0.64 0.00 94 1017.3
20260508140603 11 346 0.0 1.6 0.00 0.64 0.00 93 1017.3
20260508140004 10 359 0.0 4.8 0.00 0.64 0.00 88 1017.3
20260508135511 10 359 0.0 4.8 0.00 0.76 0.00 90 1017.3
20260508135103 10 349 0.0 3.2 0.00 0.76 0.00 94 1017.2
20260508134502 10 328 1.6 3.2 0.00 0.76 0.00 95 1017.2
20260508134009 9 2 1.6 6.4 0.00 0.76 0.00 98 1017.2
20260508133603 10 6 1.6 6.4 0.00 0.76 0.00 98 1017.2
20260508133002 10 6 1.6 6.4 0.00 0.76 0.00 98 1017.1
20260508132509 10 336 0.0 4.8 0.00 0.76 0.00 98 1017.1
20260508132103 10 41 0.0 3.2 0.00 0.76 0.00 98 1017.1
20260508131503 9 309 0.0 0.0 0.00 0.76 0.00 98 1017.0
20260508131009 9 309 0.0 0.0 0.00 0.76 0.00 98 1017.0
20260508130603 8 309 0.0 0.0 0.00 0.76 0.00 98 1017.0
20260508130003 8 309 0.0 3.2 0.00 0.76 0.00 98 1016.9
20260508125509 8 310 0.0 3.2 0.00 0.99 0.00 98 1016.9
20260508125104 8 317 0.0 0.0 0.00 0.99 0.00 98 1016.9
20260508124504 8 317 0.0 0.0 0.00 0.99 0.00 98 1016.9
20260508124009 8 317 0.0 0.0 0.00 0.99 0.00 98 1016.9
20260508123602 7 317 0.0 0.0 0.00 0.99 0.00 98 1016.8
20260508123004 7 317 0.0 0.0 0.00 0.99 0.00 98 1016.8
20260508122509 6 317 0.0 0.0 0.00 0.99 0.00 98 1016.8
20260508122103 6 317 0.0 0.0 0.00 0.99 0.00 98 1016.7
20260508121503 6 317 0.0 0.0 0.00 0.99 0.00 98 1016.7
20260508121009 6 317 0.0 0.0 0.00 0.99 0.00 98 1016.7
20260508120603 6 317 0.0 0.0 0.00 0.99 0.00 98 1016.6
20260508120003 5 317 0.0 0.0 0.00 0.99 0.00 97 1016.5
20260508115510 5 317 0.0 0.0 0.00 1.12 0.00 97 1016.4
20260508115105 5 317 0.0 0.0 0.00 1.12 0.00 97 1016.4
20260508114503 5 317 0.0 0.0 0.00 1.12 0.00 97 1016.3
20260508114009 5 317 0.0 0.0 0.00 1.12 0.00 97 1016.3
20260508113602 5 317 0.0 0.0 0.00 1.12 0.00 97 1016.3
20260508113003 5 317 0.0 0.0 0.00 1.12 0.00 97 1016.2
20260508112509 5 317 0.0 0.0 0.00 1.12 0.00 97 1016.1
20260508112103 5 317 0.0 0.0 0.00 1.12 0.00 96 1016.1
20260508111503 5 317 0.0 0.0 0.00 1.12 0.00 96 1015.9
20260508111010 5 317 0.0 0.0 0.00 1.12 0.00 96 1015.8
20260508110603 5 317 0.0 0.0 0.00 1.12 0.00 96 1015.8
20260508110003 5 317 0.0 0.0 0.00 1.12 0.00 96 1015.5
20260508105509 5 317 0.0 0.0 0.00 1.17 0.00 96 1015.4
20260508105103 5 317 0.0 0.0 0.00 1.17 0.00 96 1015.4
20260508104503 5 317 0.0 0.0 0.00 1.17 0.00 96 1015.3
20260508104011 5 317 0.0 0.0 0.00 1.17 0.00 96 1015.3
20260508103603 5 317 0.0 0.0 0.00 1.17 0.00 96 1015.2
20260508103006 5 317 0.0 0.0 0.00 1.17 0.00 96 1015.1
20260508102513 5 317 0.0 0.0 0.00 1.17 0.00 96 1015.0
20260508102102 5 317 0.0 0.0 0.00 1.17 0.00 96 1015.0
20260508101505 5 317 0.0 0.0 0.00 1.17 0.00 96 1015.0
20260508101010 5 317 0.0 0.0 0.00 1.17 0.00 96 1015.0
20260508100602 5 317 0.0 0.0 0.00 1.17 0.00 96 1014.8
20260508100006 5 317 0.0 0.0 0.00 1.17 0.00 96 1014.8
20260508095510 5 317 0.0 0.0 0.00 1.19 0.00 96 1014.8
20260508095102 5 317 0.0 0.0 0.00 1.19 0.00 96 1014.7
20260508094503 5 317 0.0 0.0 0.00 1.19 0.00 96 1014.6
20260508094015 5 317 0.0 0.0 0.00 1.19 0.00 96 1014.5
20260508093603 5 317 0.0 0.0 0.00 1.19 0.00 96 1014.4
20260508093005 5 317 0.0 0.0 0.00 1.19 0.00 96 1014.4
20260508092510 6 317 0.0 0.0 0.00 1.19 0.00 96 1014.4
20260508092103 6 317 0.0 0.0 0.00 1.19 0.00 96 1014.4
20260508091506 6 316 0.0 0.0 0.00 1.19 0.00 96 1014.4
20260508091010 6 316 0.0 0.0 0.00 1.19 0.00 96 1014.4
20260508090604 6 316 0.0 0.0 0.00 1.19 0.00 96 1014.4
20260508090005 6 316 0.0 0.0 0.00 1.19 0.00 96 1014.3
20260508085509 6 316 0.0 0.0 0.00 1.22 0.00 96 1014.3
20260508085102 6 316 0.0 0.0 0.00 1.22 0.00 96 1014.3
20260508084503 6 316 0.0 0.0 0.00 1.22 0.00 96 1014.2
20260508084010 6 316 0.0 0.0 0.00 1.22 0.00 96 1014.1
20260508083603 6 316 0.0 0.0 0.00 1.22 0.00 96 1014.1
20260508083002 6 316 0.0 0.0 0.00 1.22 0.00 96 1014.2
20260508082509 6 316 0.0 0.0 0.00 1.22 0.00 96 1014.0
20260508082103 6 316 0.0 0.0 0.00 1.22 0.00 96 1013.9
20260508081503 6 316 0.0 0.0 0.00 1.22 0.00 96 1013.8
20260508081009 6 316 0.0 0.0 0.00 1.22 0.00 96 1013.7
20260508080605 6 316 0.0 0.0 0.00 1.22 0.00 96 1013.7
20260508080005 6 316 0.0 0.0 0.00 1.22 0.00 96 1013.6
20260508075509 7 316 0.0 0.0 0.00 1.22 0.00 96 1013.7
20260508075105 7 316 0.0 0.0 0.00 1.22 0.00 96 1013.6
20260508074502 7 316 0.0 0.0 0.00 1.22 0.00 96 1013.7
20260508074009 7 316 0.0 0.0 0.00 1.22 0.00 96 1013.6
20260508073603 7 316 0.0 0.0 0.00 1.22 0.00 96 1013.6
20260508073002 7 316 0.0 0.0 0.00 1.22 0.00 96 1013.5
20260508072508 7 316 0.0 0.0 0.00 1.22 0.00 96 1013.6
20260508072104 7 316 0.0 0.0 0.00 1.22 0.00 96 1013.5
20260508071503 7 316 0.0 0.0 0.00 1.22 0.00 96 1013.5
20260508071009 7 316 0.0 0.0 0.00 1.22 0.00 96 1013.5
20260508070603 7 316 0.0 0.0 0.00 1.22 0.00 96 1013.4
20260508070005 7 316 0.0 0.0 0.00 1.22 0.00 96 1013.4
20260508065517 7 316 0.0 0.0 0.00 1.27 0.00 96 1013.2
20260508065102 7 316 0.0 0.0 0.00 1.27 0.00 96 1013.3
20260508064504 7 316 0.0 0.0 0.00 1.27 0.00 96 1013.3
20260508064009 7 316 0.0 0.0 0.00 1.27 0.00 96 1013.2
20260508063602 8 316 0.0 0.0 0.00 1.27 0.00 96 1013.2
20260508063003 8 316 0.0 0.0 0.00 1.27 0.00 96 1013.2
20260508062511 8 316 0.0 0.0 0.00 1.27 0.00 96 1013.2
20260508062102 8 316 0.0 0.0 0.00 1.27 0.00 96 1013.2
20260508061505 8 316 0.0 0.0 0.00 1.27 0.00 96 1013.1
20260508061010 8 316 0.0 0.0 0.00 1.27 0.00 96 1013.1
20260508060602 8 316 0.0 0.0 0.00 1.27 0.00 96 1013.2
20260508060003 8 316 0.0 0.0 0.00 1.27 0.00 96 1013.2
20260508055509 8 316 0.0 1.6 0.00 1.32 0.00 96 1013.2
20260508055102 8 316 0.0 1.6 0.00 1.32 0.00 96 1013.1
20260508054503 8 316 0.0 0.0 0.00 1.32 0.00 96 1013.0
20260508054009 8 316 0.0 0.0 0.00 1.32 0.00 96 1013.0
20260508053603 8 316 0.0 0.0 0.00 1.32 0.00 96 1013.1
20260508053002 9 316 0.0 0.0 0.00 1.32 0.00 96 1013.1
20260508052512 9 316 0.0 0.0 0.00 1.32 0.00 96 1013.0
20260508052104 9 316 0.0 0.0 0.00 1.32 0.00 96 1013.0
20260508051503 9 316 0.0 0.0 0.00 1.32 0.00 96 1013.0
20260508051009 9 316 0.0 0.0 0.00 1.32 0.00 96 1013.1
20260508050604 9 316 0.0 0.0 0.00 1.32 0.00 96 1012.9
20260508050008 9 316 0.0 0.0 0.00 1.32 0.00 96 1012.9
20260508045511 9 316 0.0 0.0 0.00 1.32 0.00 96 1012.7
20260508045106 9 316 0.0 0.0 0.00 1.32 0.00 96 1012.8
20260508044503 9 316 0.0 0.0 0.00 1.32 0.00 96 1012.8
20260508044008 10 316 0.0 0.0 0.00 1.32 0.00 96 1012.8
20260508043603 10 316 0.0 0.0 0.00 1.32 0.00 96 1012.8
20260508043003 10 316 0.0 0.0 0.00 1.32 0.00 96 1012.7
20260508042510 10 316 0.0 0.0 0.00 1.32 0.00 96 1012.6
20260508042102 10 316 0.0 0.0 0.00 1.32 0.00 96 1012.6
20260508041503 10 316 0.0 0.0 0.00 1.32 0.00 96 1012.5
20260508041003 10 316 0.0 0.0 0.00 1.32 0.00 96 1012.5
20260508040603 10 316 0.0 0.0 0.00 1.32 0.00 96 1012.5
20260508040006 10 316 0.0 0.0 0.00 1.32 0.00 96 1012.5
20260508035509 10 316 0.0 0.0 0.00 1.57 1.32 96 1012.5
20260508035103 10 316 0.0 0.0 0.00 1.57 1.32 96 1012.4
20260508034502 10 316 0.0 0.0 0.00 1.57 1.32 96 1012.4
20260508034009 10 316 0.0 0.0 0.00 1.57 1.32 96 1012.3
20260508033603 10 316 0.0 0.0 0.00 1.57 1.32 96 1012.4
20260508033005 10 316 0.0 0.0 0.00 1.57 1.32 96 1012.3
20260508032512 10 316 0.0 0.0 0.00 1.57 1.32 95 1012.3
20260508032102 10 316 0.0 0.0 0.00 1.57 1.32 96 1012.2
20260508031609 10 315 0.0 1.6 0.00 1.57 1.32 96 1012.1
20260508031010 11 315 0.0 1.6 0.00 1.57 1.32 96 1012.0
20260508030603 11 315 0.0 0.0 0.00 1.57 1.32 96 1012.1
20260508030006 11 315 0.0 0.0 0.00 1.57 1.32 96 1011.9
20260508025514 11 315 0.0 0.0 0.00 1.85 1.32 96 1011.8
20260508025003 11 315 0.0 0.0 0.00 1.85 1.32 96 1012.1
20260508024511 11 315 0.0 0.0 0.00 1.85 1.32 95 1012.0
20260508024105 11 315 0.0 0.0 0.00 1.85 1.32 95 1012.0
20260508023503 11 315 0.0 0.0 0.00 1.85 1.32 95 1011.9
20260508023013 11 315 0.0 0.0 0.00 1.85 1.32 95 1011.9
20260508022602 11 315 0.0 1.6 0.00 1.85 1.32 95 1011.7
20260508022002 11 315 0.0 1.6 0.00 1.85 1.32 95 1011.7
20260508021509 11 316 0.0 0.0 0.00 1.85 1.32 95 1011.5
20260508021103 11 316 0.0 0.0 0.00 1.85 1.32 95 1011.4
20260508020502 11 316 0.0 0.0 0.00 1.85 1.32 95 1011.4
20260508020009 11 316 0.0 0.0 0.00 1.85 1.32 95 1011.4
20260508015603 12 316 0.0 0.0 0.00 1.88 1.32 95 1011.3
20260508015002 12 315 0.0 0.0 0.00 1.88 1.32 95 1011.2
20260508014509 12 315 0.0 0.0 0.00 1.88 1.32 95 1011.0
20260508014104 12 315 0.0 0.0 0.00 1.88 1.32 95 1010.9
20260508013502 12 315 0.0 0.0 0.00 1.88 1.32 95 1010.7
20260508013009 12 315 0.0 0.0 0.00 1.88 1.32 95 1010.6
20260508012603 12 315 0.0 0.0 0.00 1.88 1.32 95 1010.6
20260508012003 12 315 0.0 0.0 0.00 1.88 1.32 95 1010.5
20260508011511 12 315 0.0 0.0 0.00 1.88 1.32 95 1010.4
20260508011106 12 316 0.0 0.0 0.00 1.88 1.32 95 1010.3
20260508010503 12 316 0.0 0.0 0.00 1.88 1.32 95 1010.3
20260508010010 13 316 0.0 0.0 0.00 1.88 1.32 96 1010.1
20260508005508 13 316 0.0 0.0 0.00 1.91 1.32 96 1010.0
20260508005102 13 316 0.0 0.0 0.00 1.91 1.32 96 1010.0
20260508004502 13 316 0.0 0.0 0.00 1.91 1.32 96 1009.9
20260508004009 13 316 0.0 0.0 0.00 1.91 1.32 96 1009.8
20260508003602 13 316 0.0 0.0 0.00 1.91 1.32 96 1009.7
20260508003003 13 316 0.0 0.0 0.00 1.91 1.32 96 1009.9
20260508002510 13 316 0.0 0.0 0.00 1.91 1.32 96 1009.9
20260508002102 13 316 0.0 0.0 0.00 1.91 1.32 95 1009.9
20260508001503 13 316 0.0 0.0 0.00 1.91 1.32 96 1009.8
20260508001010 13 316 0.0 0.0 0.00 1.91 1.32 96 1009.8
20260508000605 13 316 0.0 0.0 0.00 1.91 1.32 96 1009.8
20260508000007 13 316 0.0 0.0 0.00 1.91 1.32 96 1009.7
20260507235509 13 316 0.0 0.0 0.00 1.91 1.32 96 1009.7
20260507235102 13 316 0.0 0.0 0.00 1.91 1.32 96 1009.8
20260507234509 13 316 0.0 0.0 0.00 1.91 1.32 96 1009.7
20260507234008 13 316 0.0 0.0 0.00 1.91 1.32 96 1009.7
20260507233604 13 316 0.0 0.0 0.00 1.91 1.32 96 1009.5
20260507233004 13 316 0.0 1.6 0.00 1.91 1.32 96 1009.4
20260507232509 13 316 0.0 1.6 0.00 1.91 1.32 96 1009.3
20260507232102 13 315 0.0 1.6 0.03 1.91 1.32 96 1009.2
20260507231503 13 315 0.0 1.6 0.03 1.91 1.32 96 1009.1
20260507231008 13 317 0.0 1.6 0.03 1.91 1.32 96 1008.9
20260507230606 13 316 0.0 1.6 0.03 1.91 1.32 96 1008.7
20260507230004 13 317 0.0 3.2 0.03 1.91 1.32 96 1008.6
20260507225511 13 317 0.0 3.2 0.03 1.91 1.32 95 1008.6
20260507225103 13 1 0.0 3.2 0.03 1.91 1.32 95 1008.6
20260507224506 13 356 0.0 4.8 0.03 1.91 1.32 95 1008.6
20260507224008 13 14 0.0 4.8 0.03 1.91 1.32 95 1008.7
20260507223605 13 323 0.0 3.2 0.03 1.91 1.32 95 1008.5
20260507223002 13 340 0.0 3.2 0.03 1.91 1.32 96 1008.2
20260507222510 13 341 0.0 3.2 0.03 1.91 1.32 95 1008.2
20260507222103 13 341 0.0 4.8 0.00 1.88 1.30 96 1008.0
20260507221504 13 337 1.6 11.3 0.00 1.88 1.30 95 1008.0
20260507221011 13 349 3.2 11.3 0.00 1.88 1.30 95 1008.1
20260507220602 13 318 0.0 3.2 0.03 1.88 1.30 95 1008.2
20260507220002 13 311 0.0 6.4 0.05 1.88 1.30 95 1008.3
20260507215510 13 313 1.6 6.4 0.05 1.88 1.30 95 1008.3
20260507215105 13 219 0.0 9.7 0.05 1.88 1.30 95 1008.1
20260507214503 13 5 3.2 9.7 0.08 1.88 1.30 95 1007.9
20260507214009 13 48 0.0 6.4 0.08 1.88 1.30 95 1007.8
20260507213603 13 316 0.0 6.4 0.08 1.88 1.30 95 1007.7
20260507213111 13 332 0.0 6.4 0.10 1.88 1.30 95 1008.0
20260507212509 14 35 0.0 4.8 0.13 1.88 1.30 96 1007.8
20260507212102 14 31 0.0 6.4 0.15 1.88 1.30 96 1007.7
20260507211505 13 304 1.6 4.8 0.25 1.88 1.30 96 1007.8
20260507211009 13 306 0.0 4.8 0.41 1.88 1.30 96 1007.8
20260507210603 13 306 0.0 8.0 0.43 1.85 1.27 96 1007.8
20260507210006 13 67 1.6 8.0 0.46 1.83 1.24 95 1008.0
20260507205508 13 314 0.0 6.4 0.46 1.83 1.24 95 1007.8
20260507205101 13 82 1.6 6.4 0.46 1.83 1.24 95 1008.0
20260507204503 13 305 0.0 8.0 0.43 1.80 1.22 95 1007.8
20260507204012 13 349 3.2 8.0 0.43 1.80 1.22 94 1007.8
20260507203603 13 13 3.2 9.7 0.43 1.80 1.22 94 1007.8
20260507203002 13 335 3.2 14.5 0.41 1.78 1.19 94 1007.5
20260507202509 13 153 0.0 11.3 0.38 1.75 1.17 94 1007.1
20260507201502 14 320 4.8 9.7 0.23 1.60 1.02 92 1007.9
20260507201009 14 15 1.6 6.4 0.10 1.45 0.89 91 1008.2
20260507200603 15 307 1.6 6.4 0.03 1.40 0.81 91 1007.6
20260507200004 15 1 1.6 11.3 0.00 1.37 0.79 90 1007.4
20260507195509 15 348 4.8 8.0 0.00 1.37 0.79 89 1007.4
20260507195105 15 4 1.6 6.4 0.00 1.37 0.79 89 1007.5
20260507194502 16 349 1.6 6.4 0.00 1.37 0.79 89 1007.0
20260507194009 16 25 3.2 6.4 0.00 1.37 0.79 89 1006.8
20260507193603 16 72 3.2 6.4 0.00 1.37 0.79 89 1007.2
20260507193003 16 86 1.6 6.4 0.00 1.37 0.79 90 1007.2
20260507192508 16 70 1.6 8.0 0.00 1.37 0.79 91 1007.0
20260507192102 16 27 1.6 8.0 0.00 1.37 0.79 89 1007.0
20260507191503 16 24 1.6 9.7 0.00 1.37 0.79 90 1006.7
20260507191008 16 340 3.2 9.7 0.00 1.37 0.79 91 1006.8
20260507190602 16 68 0.0 12.9 0.00 1.37 0.79 92 1006.9
20260507190004 16 294 1.6 12.9 0.00 1.37 0.79 91 1007.1
20260507185509 16 4 1.6 8.0 0.00 1.37 0.79 93 1007.2
20260507185102 16 19 1.6 8.0 0.00 1.37 0.79 93 1007.2
20260507184503 16 35 0.0 4.8 0.00 1.37 0.79 93 1007.3
20260507184009 16 66 0.0 6.4 0.00 1.37 0.79 92 1007.1
20260507183604 16 51 1.6 6.4 0.00 1.37 0.79 92 1007.1
20260507183007 17 323 1.6 8.0 0.00 1.37 0.79 92 1007.3
20260507182510 17 306 3.2 9.7 0.00 1.37 0.79 91 1007.2
20260507182103 17 317 1.6 11.3 0.00 1.37 0.79 92 1007.3
20260507181503 17 1 3.2 12.9 0.00 1.37 0.79 92 1007.4
20260507181009 17 41 3.2 8.0 0.00 1.37 0.79 92 1007.3
20260507180603 17 46 1.6 11.3 0.00 1.37 0.79 91 1007.2
20260507180003 17 357 3.2 17.7 0.00 1.37 0.79 92 1007.0
20260507175512 17 1 4.8 17.7 0.00 1.45 0.79 91 1007.0
20260507175103 17 335 3.2 9.7 0.00 1.45 0.79 92 1007.0
20260507174504 18 24 1.6 8.0 0.00 1.45 0.79 92 1007.3
20260507174008 18 315 1.6 12.9 0.00 1.45 0.79 91 1007.3
20260507173603 18 349 3.2 12.9 0.00 1.45 0.79 90 1007.4
20260507173003 19 352 4.8 12.9 0.00 1.45 0.79 90 1007.3
20260507172509 19 239 0.0 3.2 0.00 1.45 0.79 93 1007.3
20260507172103 19 239 0.0 3.2 0.00 1.45 0.79 93 1007.3
20260507171502 19 210 0.0 3.2 0.00 1.45 0.79 94 1007.4
20260507171009 19 210 0.0 3.2 0.00 1.45 0.79 95 1007.4
20260507170603 19 208 0.0 3.2 0.00 1.45 0.79 94 1007.3
20260507170002 19 208 0.0 3.2 0.00 1.45 0.79 96 1007.3
20260507165509 19 151 0.0 1.6 0.00 1.45 0.79 96 1007.4
20260507165106 19 151 0.0 3.2 0.00 1.45 0.79 96 1007.5
20260507164502 18 151 0.0 3.2 0.00 1.45 0.79 95 1007.8